Location: Crescent
(42.8242°N, 73.7329°W)
Time: 08:02:29
(UTC+00:00)

Vanguard 1 Rocket - Pass Details

Date: 24 February 2026
Orbit: 653 x 4214 km, 34.3° (Epoch: 12 March)

Event Time Altitude Azimuth Distance (km) Brightness Sun altitude
Rises 18:50:32 0° 259° (WSW) 4,088 11.3 32.9°
Reaches altitude 10° 18:52:48 10° 254° (WSW) 3,407 11.1 32.7°
Maximum altitude 19:01:33 57° 178° (S) 2,337 10.6 31.9°
Drops below altitude 10° 19:18:41 10° 107° (ESE) 6,331 11.6 30.0°
Sets 19:24:45 0° 104° (ESE) 7,809 11.9 29.3°
